User: anonymous   Login
Location: *
(33.8649°S, 62.1526°E)
Time: 21:04:55
(UTC+00:00)
Language:

Resurs 1-4 Rocket - Orbit

View from above orbital plane
View from above orbital plane
View from above satellite
View from above satellite

Ground track
Ground track

The orbit data is extracted from the following two-line orbital elements,

1 25400U 98043G   21110.52507631  .00000001  00000-0  18991-4 0  9992
2 25400  98.6367  47.2319 0010310 154.4902 205.6788 14.25474131184762
Epoch (UTC): 20 April 2021 12:36:06
Eccentricity: 0.0010310
inclination: 98.6367°
perigee height: 799 km
apogee height: 814 km
right ascension of ascending node: 47.2319°
argument of perigee: 154.4902°
revolutions per day: 14.25474131
mean anomaly at epoch: 205.6788°
orbit number at epoch: 18476

The dashed part of the orbit path shows where the satellite is in the earth's shadow,  

DLR